Year,Month,Day,Hour,Minute,Value (Times are PST for temperature in C)
2014,07,15,00,00,23.90
2014,07,15,00,01,24.10
2014,07,15,00,02,24.10
2014,07,15,00,03,24.20
2014,07,15,00,04,24.20
2014,07,15,00,05,24.30
2014,07,15,00,06,24.30
2014,07,15,00,07,24.40
2014,07,15,00,08,24.40
2014,07,15,00,09,24.40
2014,07,15,00,10,24.40
2014,07,15,00,11,24.50
2014,07,15,00,12,24.50
2014,07,15,00,13,24.50
2014,07,15,00,14,24.50
2014,07,15,00,15,24.40
2014,07,15,00,16,24.40
2014,07,15,00,17,24.40
2014,07,15,00,18,24.40
2014,07,15,00,19,24.30
2014,07,15,00,20,24.30
2014,07,15,00,21,24.30
2014,07,15,00,22,24.30
2014,07,15,00,23,24.20
2014,07,15,00,24,24.20
2014,07,15,00,25,24.20
2014,07,15,00,26,24.20
2014,07,15,00,27,24.10
2014,07,15,00,28,24.10
2014,07,15,00,29,24.10
2014,07,15,00,30,24.10
2014,07,15,00,31,24.10
2014,07,15,00,32,24.00
2014,07,15,00,33,24.00
2014,07,15,00,34,24.00
2014,07,15,00,35,24.00
2014,07,15,00,36,24.00
2014,07,15,00,37,24.00
2014,07,15,00,38,24.00
2014,07,15,00,39,24.00
2014,07,15,00,40,24.00
2014,07,15,00,41,24.00
2014,07,15,00,42,24.00
2014,07,15,00,43,23.90
2014,07,15,00,44,23.90
2014,07,15,00,45,23.80
2014,07,15,00,46,23.80
2014,07,15,00,47,23.80
2014,07,15,00,48,23.80
2014,07,15,00,49,23.70
2014,07,15,00,50,23.70
2014,07,15,00,51,23.70
2014,07,15,00,52,23.60
2014,07,15,00,53,23.60
2014,07,15,00,54,23.60
2014,07,15,00,55,23.60
2014,07,15,00,56,23.50
2014,07,15,00,57,23.50
2014,07,15,00,58,23.60
2014,07,15,00,59,23.60
2014,07,15,01,00,23.60
2014,07,15,01,01,23.70
2014,07,15,01,02,23.70
2014,07,15,01,03,23.80
2014,07,15,01,04,23.80
2014,07,15,01,05,23.80
2014,07,15,01,06,23.80
2014,07,15,01,07,23.80
2014,07,15,01,08,23.80
2014,07,15,01,09,23.80
2014,07,15,01,10,23.80
2014,07,15,01,11,23.80
2014,07,15,01,12,23.80
2014,07,15,01,13,23.80
2014,07,15,01,14,23.80
2014,07,15,01,15,23.80
2014,07,15,01,16,23.80
2014,07,15,01,17,23.80
2014,07,15,01,18,23.70
2014,07,15,01,19,23.70
2014,07,15,01,20,23.70
2014,07,15,01,21,23.70
2014,07,15,01,22,23.70
2014,07,15,01,23,23.70
2014,07,15,01,24,23.70
2014,07,15,01,25,23.70
2014,07,15,01,26,23.70
2014,07,15,01,27,23.70
2014,07,15,01,28,23.60
2014,07,15,01,29,23.60
2014,07,15,01,30,23.60
2014,07,15,01,31,23.60
2014,07,15,01,32,23.60
2014,07,15,01,33,23.60
2014,07,15,01,34,23.50
2014,07,15,01,35,23.50
2014,07,15,01,36,23.50
2014,07,15,01,37,23.50
2014,07,15,01,38,23.40
2014,07,15,01,39,23.40
2014,07,15,01,40,23.40
2014,07,15,01,41,23.40
2014,07,15,01,42,23.40
2014,07,15,01,43,23.40
2014,07,15,01,44,23.40
2014,07,15,01,45,23.40
2014,07,15,01,46,23.40
2014,07,15,01,47,23.40
2014,07,15,01,48,23.30
2014,07,15,01,49,23.30
2014,07,15,01,50,23.30
2014,07,15,01,51,23.30
2014,07,15,01,52,23.30
2014,07,15,01,53,23.30
2014,07,15,01,54,23.30
2014,07,15,01,55,23.30
2014,07,15,01,56,23.30
2014,07,15,01,57,23.30
2014,07,15,01,58,23.30
2014,07,15,01,59,23.30
2014,07,15,02,00,23.20
2014,07,15,02,01,23.20
2014,07,15,02,02,23.20
2014,07,15,02,03,23.20
2014,07,15,02,04,23.20
2014,07,15,02,05,23.20
2014,07,15,02,06,23.20
2014,07,15,02,07,23.10
2014,07,15,02,08,23.10
2014,07,15,02,09,23.10
2014,07,15,02,10,23.10
2014,07,15,02,11,23.10
2014,07,15,02,12,23.00
2014,07,15,02,13,23.00
2014,07,15,02,14,23.00
2014,07,15,02,15,23.00
2014,07,15,02,16,22.90
2014,07,15,02,17,22.90
2014,07,15,02,18,22.90
2014,07,15,02,19,22.90
2014,07,15,02,20,22.90
2014,07,15,02,21,22.80
2014,07,15,02,22,22.80
2014,07,15,02,23,22.80
2014,07,15,02,24,22.80
2014,07,15,02,25,22.70
2014,07,15,02,26,22.70
2014,07,15,02,27,22.70
2014,07,15,02,28,22.70
2014,07,15,02,29,22.60
2014,07,15,02,30,22.60
2014,07,15,02,31,22.60
2014,07,15,02,32,22.60
2014,07,15,02,33,22.60
2014,07,15,02,34,22.50
2014,07,15,02,35,22.50
2014,07,15,02,36,22.60
2014,07,15,02,37,22.60
2014,07,15,02,38,22.60
2014,07,15,02,39,22.50
2014,07,15,02,40,22.50
2014,07,15,02,41,22.50
2014,07,15,02,42,22.50
2014,07,15,02,43,22.40
2014,07,15,02,44,22.40
2014,07,15,02,45,22.40
2014,07,15,02,46,22.30
2014,07,15,02,47,22.30
2014,07,15,02,48,22.30
2014,07,15,02,49,22.30
2014,07,15,02,50,22.30
2014,07,15,02,51,22.30
2014,07,15,02,52,22.30
2014,07,15,02,53,22.30
2014,07,15,02,54,22.30
2014,07,15,02,55,22.30
2014,07,15,02,56,22.30
2014,07,15,02,57,22.30
2014,07,15,02,58,22.30
2014,07,15,02,59,22.30
2014,07,15,03,00,22.30
2014,07,15,03,01,22.30
2014,07,15,03,02,22.30
2014,07,15,03,03,22.20
2014,07,15,03,04,22.20
2014,07,15,03,05,22.20
2014,07,15,03,06,22.10
2014,07,15,03,07,22.10
2014,07,15,03,08,22.10
2014,07,15,03,09,22.00
2014,07,15,03,10,22.10
2014,07,15,03,11,22.10
2014,07,15,03,12,22.00
2014,07,15,03,13,22.00
2014,07,15,03,14,22.00
2014,07,15,03,15,21.90
2014,07,15,03,16,21.90
2014,07,15,03,17,21.90
2014,07,15,03,18,21.80
2014,07,15,03,19,21.80
2014,07,15,03,20,21.80
2014,07,15,03,21,21.80
2014,07,15,03,22,21.80
2014,07,15,03,23,21.80
2014,07,15,03,24,21.80
2014,07,15,03,25,21.80
2014,07,15,03,26,21.80
2014,07,15,03,27,21.80
2014,07,15,03,28,21.80
2014,07,15,03,29,21.80
2014,07,15,03,30,21.80
2014,07,15,03,31,21.80
2014,07,15,03,32,21.70
2014,07,15,03,33,21.70
2014,07,15,03,34,21.70
2014,07,15,03,35,21.70
2014,07,15,03,36,21.70
2014,07,15,03,37,21.60
2014,07,15,03,38,21.60
2014,07,15,03,39,21.60
2014,07,15,03,40,21.50
2014,07,15,03,41,21.50
2014,07,15,03,42,21.50
2014,07,15,03,43,21.50
2014,07,15,03,44,21.50
2014,07,15,03,45,21.40
2014,07,15,03,46,21.40
2014,07,15,03,47,21.40
2014,07,15,03,48,21.40
2014,07,15,03,49,21.30
2014,07,15,03,50,21.30
2014,07,15,03,51,21.30
2014,07,15,03,52,21.30
2014,07,15,03,53,21.30
2014,07,15,03,54,21.20
2014,07,15,03,55,21.10
2014,07,15,03,56,21.00
2014,07,15,03,57,21.00
2014,07,15,03,58,20.90
2014,07,15,03,59,20.80
2014,07,15,04,00,20.80
2014,07,15,04,01,20.80
2014,07,15,04,02,20.80
2014,07,15,04,03,20.80
2014,07,15,04,04,20.80
2014,07,15,04,05,20.80
2014,07,15,04,06,20.80
2014,07,15,04,07,20.80
2014,07,15,04,08,20.80
2014,07,15,04,09,20.80
2014,07,15,04,10,20.80
2014,07,15,04,11,20.80
2014,07,15,04,12,20.80
2014,07,15,04,13,20.80
2014,07,15,04,14,20.90
2014,07,15,04,15,20.90
2014,07,15,04,16,20.90
2014,07,15,04,17,20.90
2014,07,15,04,18,20.90
2014,07,15,04,19,20.90
2014,07,15,04,20,20.90
2014,07,15,04,21,20.90
2014,07,15,04,22,20.80
2014,07,15,04,23,20.80
2014,07,15,04,24,20.80
2014,07,15,04,25,20.80
2014,07,15,04,26,20.80
2014,07,15,04,27,20.80
2014,07,15,04,28,20.80
2014,07,15,04,29,20.80
2014,07,15,04,30,20.80
2014,07,15,04,31,20.80
2014,07,15,04,32,20.80
2014,07,15,04,33,20.80
2014,07,15,04,34,20.80
2014,07,15,04,35,20.70
2014,07,15,04,36,20.70
2014,07,15,04,37,20.70
2014,07,15,04,38,20.70
2014,07,15,04,39,20.60
2014,07,15,04,40,20.60
2014,07,15,04,41,20.50
2014,07,15,04,42,20.50
2014,07,15,04,43,20.40
2014,07,15,04,44,20.40
2014,07,15,04,45,20.30
2014,07,15,04,46,20.30
2014,07,15,04,47,20.30
2014,07,15,04,48,20.20
2014,07,15,04,49,20.20
2014,07,15,04,50,20.20
2014,07,15,04,51,20.20
2014,07,15,04,52,20.20
2014,07,15,04,53,20.20
2014,07,15,04,54,20.20
2014,07,15,04,55,20.20
2014,07,15,04,56,20.20
2014,07,15,04,57,20.20
2014,07,15,04,58,20.20
2014,07,15,04,59,20.20
2014,07,15,05,00,20.20
2014,07,15,05,01,20.20
2014,07,15,05,02,20.20
2014,07,15,05,03,20.10
2014,07,15,05,04,20.10
2014,07,15,05,05,20.10
2014,07,15,05,06,20.10
2014,07,15,05,07,20.00
2014,07,15,05,08,19.90
2014,07,15,05,09,19.90
2014,07,15,05,10,19.90
2014,07,15,05,11,19.80
2014,07,15,05,12,19.80
2014,07,15,05,13,19.80
2014,07,15,05,14,19.70
2014,07,15,05,15,19.70
2014,07,15,05,16,19.70
2014,07,15,05,17,19.60
2014,07,15,05,18,19.60
2014,07,15,05,19,19.60
2014,07,15,05,20,19.50
2014,07,15,05,21,19.50
2014,07,15,05,22,19.40
2014,07,15,05,23,19.40
2014,07,15,05,24,19.40
2014,07,15,05,25,19.30
2014,07,15,05,26,19.30
2014,07,15,05,27,19.30
2014,07,15,05,28,19.20
2014,07,15,05,29,19.20
2014,07,15,05,30,19.10
2014,07,15,05,31,19.10
2014,07,15,05,32,19.00
2014,07,15,05,33,19.00
2014,07,15,05,34,18.90
2014,07,15,05,35,18.90
2014,07,15,05,36,18.90
2014,07,15,05,37,18.80
2014,07,15,05,38,18.80
2014,07,15,05,39,18.80
2014,07,15,05,40,18.80
2014,07,15,05,41,18.70
2014,07,15,05,42,18.70
2014,07,15,05,43,18.70
2014,07,15,05,44,18.70
2014,07,15,05,45,18.70
2014,07,15,05,46,18.60
2014,07,15,05,47,18.60
2014,07,15,05,48,18.60
2014,07,15,05,49,18.50
2014,07,15,05,50,18.50
2014,07,15,05,51,18.50
2014,07,15,05,52,18.40
2014,07,15,05,53,18.40
2014,07,15,05,54,18.40
2014,07,15,05,55,18.30
2014,07,15,05,56,18.30
2014,07,15,05,57,18.20
2014,07,15,05,58,18.20
2014,07,15,05,59,18.20
2014,07,15,06,00,18.20
2014,07,15,06,01,18.20
2014,07,15,06,02,18.20
2014,07,15,06,03,18.20
2014,07,15,06,04,18.30
2014,07,15,06,05,18.30
2014,07,15,06,06,18.40
2014,07,15,06,07,18.40
2014,07,15,06,08,18.40
2014,07,15,06,09,18.40
2014,07,15,06,10,18.40
2014,07,15,06,11,18.40
2014,07,15,06,12,18.30
2014,07,15,06,13,18.30
2014,07,15,06,14,18.30
2014,07,15,06,15,18.30
2014,07,15,06,16,18.20
2014,07,15,06,17,18.20
2014,07,15,06,18,18.20
2014,07,15,06,19,18.20
2014,07,15,06,20,18.20
2014,07,15,06,21,18.10
2014,07,15,06,22,18.10
2014,07,15,06,23,18.10
2014,07,15,06,24,18.20
2014,07,15,06,25,18.30
2014,07,15,06,26,18.40
2014,07,15,06,27,18.50
2014,07,15,06,28,18.60
2014,07,15,06,29,18.70
2014,07,15,06,30,18.80
2014,07,15,06,31,18.90
2014,07,15,06,32,19.00
2014,07,15,06,33,19.10
2014,07,15,06,34,19.20
2014,07,15,06,35,19.20
2014,07,15,06,36,19.30
2014,07,15,06,37,19.30
2014,07,15,06,38,19.30
2014,07,15,06,39,19.30
2014,07,15,06,40,19.30
2014,07,15,06,41,19.30
2014,07,15,06,42,19.40
2014,07,15,06,43,19.40
2014,07,15,06,44,19.40
2014,07,15,06,45,19.40
2014,07,15,06,46,19.50
2014,07,15,06,47,19.50
2014,07,15,06,48,19.50
2014,07,15,06,49,19.50
2014,07,15,06,50,19.50
2014,07,15,06,51,19.50
2014,07,15,06,52,19.60
2014,07,15,06,53,19.60
2014,07,15,06,54,19.60
2014,07,15,06,55,19.60
2014,07,15,06,56,19.50
2014,07,15,06,57,19.40
2014,07,15,06,58,19.30
2014,07,15,06,59,19.10
2014,07,15,07,00,19.10
2014,07,15,07,01,19.00
2014,07,15,07,02,18.90
2014,07,15,07,03,18.80
2014,07,15,07,04,18.70
2014,07,15,07,05,18.60
2014,07,15,07,06,18.60
2014,07,15,07,07,18.60
2014,07,15,07,08,18.60
2014,07,15,07,09,18.60
2014,07,15,07,10,18.60
2014,07,15,07,11,18.60
2014,07,15,07,12,18.60
2014,07,15,07,13,18.60
2014,07,15,07,14,18.60
2014,07,15,07,15,18.70
2014,07,15,07,16,18.70
2014,07,15,07,17,18.80
2014,07,15,07,18,18.90
2014,07,15,07,19,19.00
2014,07,15,07,20,19.10
2014,07,15,07,21,19.20
2014,07,15,07,22,19.20
2014,07,15,07,23,19.30
2014,07,15,07,24,19.30
2014,07,15,07,25,19.50
2014,07,15,07,26,19.50
2014,07,15,07,27,19.60
2014,07,15,07,28,19.60
2014,07,15,07,29,19.70
2014,07,15,07,30,19.80
2014,07,15,07,31,19.80
2014,07,15,07,32,19.90
2014,07,15,07,33,20.00
2014,07,15,07,34,20.10
2014,07,15,07,35,20.10
2014,07,15,07,36,20.20
2014,07,15,07,37,20.20
2014,07,15,07,38,20.20
2014,07,15,07,39,20.20
2014,07,15,07,40,20.30
2014,07,15,07,41,20.30
2014,07,15,07,42,20.30
2014,07,15,07,43,20.30
2014,07,15,07,44,20.30
2014,07,15,07,45,20.30
2014,07,15,07,46,20.30
2014,07,15,07,47,20.30
2014,07,15,07,48,20.30
2014,07,15,07,49,20.30
2014,07,15,07,50,20.30
2014,07,15,07,51,20.30
2014,07,15,07,52,20.30
2014,07,15,07,53,20.30
2014,07,15,07,54,20.30
2014,07,15,07,55,20.30
2014,07,15,07,56,20.20
2014,07,15,07,57,20.20
2014,07,15,07,58,20.20
2014,07,15,07,59,20.20
2014,07,15,08,00,20.20
2014,07,15,08,01,20.30
2014,07,15,08,02,20.30
2014,07,15,08,03,20.30
2014,07,15,08,04,20.30
2014,07,15,08,05,20.30
2014,07,15,08,06,20.20
2014,07,15,08,07,20.20
2014,07,15,08,08,20.20
2014,07,15,08,09,20.20
2014,07,15,08,10,20.20
2014,07,15,08,11,20.20
2014,07,15,08,12,20.20
2014,07,15,08,13,20.20
2014,07,15,08,14,20.20
2014,07,15,08,15,20.20
2014,07,15,08,16,20.20
2014,07,15,08,17,20.20
2014,07,15,08,18,20.20
2014,07,15,08,19,20.20
2014,07,15,08,20,20.20
2014,07,15,08,21,20.20
2014,07,15,08,22,20.10
2014,07,15,08,23,20.10
2014,07,15,08,24,20.10
2014,07,15,08,25,20.10
2014,07,15,08,26,20.20
2014,07,15,08,27,20.20
2014,07,15,08,28,20.20
2014,07,15,08,29,20.20
2014,07,15,08,30,20.20
2014,07,15,08,31,20.10
2014,07,15,08,32,20.20
2014,07,15,08,33,20.20
2014,07,15,08,34,20.20
2014,07,15,08,35,20.20
2014,07,15,08,36,20.20
2014,07,15,08,37,20.20
2014,07,15,08,38,20.30
2014,07,15,08,39,20.30
2014,07,15,08,40,20.30
2014,07,15,08,41,20.30
2014,07,15,08,42,20.30
2014,07,15,08,43,20.30
2014,07,15,08,44,20.20
2014,07,15,08,45,20.20
2014,07,15,08,46,20.20
2014,07,15,08,47,20.20
2014,07,15,08,48,20.30
2014,07,15,08,49,20.30
2014,07,15,08,50,20.30
2014,07,15,08,51,20.20
2014,07,15,08,52,20.20
2014,07,15,08,53,20.10
2014,07,15,08,54,20.00
2014,07,15,08,55,20.00
2014,07,15,08,56,19.90
2014,07,15,08,57,19.90
2014,07,15,08,58,19.90
2014,07,15,08,59,19.80
2014,07,15,09,00,19.80
2014,07,15,09,01,19.80
2014,07,15,09,02,19.70
2014,07,15,09,03,19.70
2014,07,15,09,04,19.70
2014,07,15,09,05,19.70
2014,07,15,09,06,19.70
2014,07,15,09,07,19.70
2014,07,15,09,08,19.80
2014,07,15,09,09,19.80
2014,07,15,09,10,19.80
2014,07,15,09,11,19.90
2014,07,15,09,12,19.90
2014,07,15,09,13,19.90
2014,07,15,09,14,19.80
2014,07,15,09,15,19.80
2014,07,15,09,16,19.70
2014,07,15,09,17,19.80
2014,07,15,09,18,19.80
2014,07,15,09,19,19.80
2014,07,15,09,20,19.90
2014,07,15,09,21,19.90
2014,07,15,09,22,20.00
2014,07,15,09,23,20.00
2014,07,15,09,24,20.10
2014,07,15,09,25,20.10
2014,07,15,09,26,20.20
2014,07,15,09,27,20.20
2014,07,15,09,28,20.30
2014,07,15,09,29,20.30
2014,07,15,09,30,20.40
2014,07,15,09,31,20.50
2014,07,15,09,32,20.60
2014,07,15,09,33,20.70
2014,07,15,09,34,20.70
2014,07,15,09,35,20.70
2014,07,15,09,36,20.70
2014,07,15,09,37,20.60
2014,07,15,09,38,20.60
2014,07,15,09,39,20.60
2014,07,15,09,40,20.60
2014,07,15,09,41,20.60
2014,07,15,09,42,20.60
2014,07,15,09,43,20.50
2014,07,15,09,44,20.40
2014,07,15,09,45,20.40
2014,07,15,09,46,20.40
2014,07,15,09,47,20.40
2014,07,15,09,48,20.40
2014,07,15,09,49,20.50
2014,07,15,09,50,20.50
2014,07,15,09,51,20.40
2014,07,15,09,52,20.50
2014,07,15,09,53,20.50
2014,07,15,09,54,20.50
2014,07,15,09,55,20.60
2014,07,15,09,56,20.60
2014,07,15,09,57,20.70
2014,07,15,09,58,20.80
2014,07,15,09,59,20.80
2014,07,15,10,00,20.90
2014,07,15,10,01,21.00
2014,07,15,10,02,21.00
2014,07,15,10,03,21.10
2014,07,15,10,04,21.10
2014,07,15,10,05,21.20
2014,07,15,10,06,21.30
2014,07,15,10,07,21.30
2014,07,15,10,08,21.30
2014,07,15,10,09,21.40
2014,07,15,10,10,21.50
2014,07,15,10,11,21.50
2014,07,15,10,12,21.50
2014,07,15,10,13,21.40
2014,07,15,10,14,21.30
2014,07,15,10,15,21.20
2014,07,15,10,16,21.20
2014,07,15,10,17,21.20
2014,07,15,10,18,21.20
2014,07,15,10,19,21.20
2014,07,15,10,20,21.20
2014,07,15,10,21,21.30
2014,07,15,10,22,21.20
2014,07,15,10,23,21.20
2014,07,15,10,24,21.20
2014,07,15,10,25,21.30
2014,07,15,10,26,21.40
2014,07,15,10,27,21.40
2014,07,15,10,28,21.40
2014,07,15,10,29,21.40
2014,07,15,10,30,21.40
2014,07,15,10,31,21.40
2014,07,15,10,32,21.40
2014,07,15,10,33,21.30
2014,07,15,10,34,21.30
2014,07,15,10,35,21.30
2014,07,15,10,36,21.40
2014,07,15,10,37,21.40
2014,07,15,10,38,21.40
2014,07,15,10,39,21.40
2014,07,15,10,40,21.40
2014,07,15,10,41,21.30
2014,07,15,10,42,21.20
2014,07,15,10,43,21.10
2014,07,15,10,44,21.10
2014,07,15,10,45,21.00
2014,07,15,10,46,21.00
2014,07,15,10,47,21.00
2014,07,15,10,48,21.00
2014,07,15,10,49,21.00
2014,07,15,10,50,21.00
2014,07,15,10,51,21.10
2014,07,15,10,52,21.20
2014,07,15,10,53,21.10
2014,07,15,10,54,21.10
2014,07,15,10,55,21.10
2014,07,15,10,56,21.10
2014,07,15,10,57,21.00
2014,07,15,10,58,20.90
2014,07,15,10,59,20.90
2014,07,15,11,00,20.90
2014,07,15,11,01,20.90
2014,07,15,11,02,20.90
2014,07,15,11,03,20.90
2014,07,15,11,04,21.00
2014,07,15,11,05,21.00
2014,07,15,11,06,21.00
2014,07,15,11,07,20.90
2014,07,15,11,08,20.90
2014,07,15,11,09,20.80
2014,07,15,11,10,20.90
2014,07,15,11,11,20.90
2014,07,15,11,12,21.10
2014,07,15,11,13,21.30
2014,07,15,11,14,21.40
2014,07,15,11,15,21.50
2014,07,15,11,16,21.60
2014,07,15,11,17,21.70
2014,07,15,11,18,21.80
2014,07,15,11,19,21.80
2014,07,15,11,20,21.90
2014,07,15,11,21,21.80
2014,07,15,11,22,21.80
2014,07,15,11,23,21.80
2014,07,15,11,24,21.80
2014,07,15,11,25,21.80
2014,07,15,11,26,21.80
2014,07,15,11,27,21.80
2014,07,15,11,28,21.80
2014,07,15,11,29,21.90
2014,07,15,11,30,21.90
2014,07,15,11,31,22.00
2014,07,15,11,32,22.10
2014,07,15,11,33,22.20
2014,07,15,11,34,22.20
2014,07,15,11,35,22.20
2014,07,15,11,36,22.30
2014,07,15,11,37,22.30
2014,07,15,11,38,22.20
2014,07,15,11,39,22.10
2014,07,15,11,40,22.00
2014,07,15,11,41,22.10
2014,07,15,11,42,22.00
2014,07,15,11,43,22.00
2014,07,15,11,44,22.00
2014,07,15,11,45,22.00
2014,07,15,11,46,22.10
2014,07,15,11,47,22.10
2014,07,15,11,48,22.10
2014,07,15,11,49,22.20
2014,07,15,11,50,22.20
2014,07,15,11,51,22.30
2014,07,15,11,52,22.50
2014,07,15,11,53,22.60
2014,07,15,11,54,22.60
2014,07,15,11,55,22.50
2014,07,15,11,56,22.40
2014,07,15,11,57,22.40
2014,07,15,11,58,22.50
2014,07,15,11,59,22.50
2014,07,15,12,00,22.60
2014,07,15,12,01,22.60
2014,07,15,12,02,22.60
2014,07,15,12,03,22.70
2014,07,15,12,04,22.80
2014,07,15,12,05,22.90
2014,07,15,12,06,22.90
2014,07,15,12,07,22.90
2014,07,15,12,08,22.90
2014,07,15,12,09,23.00
2014,07,15,12,10,23.10
2014,07,15,12,11,23.10
2014,07,15,12,12,23.00
2014,07,15,12,13,23.00
2014,07,15,12,14,23.00
2014,07,15,12,15,23.10
2014,07,15,12,16,23.10
2014,07,15,12,17,23.10
2014,07,15,12,18,23.10
2014,07,15,12,19,23.00
2014,07,15,12,20,23.00
2014,07,15,12,21,23.10
2014,07,15,12,22,23.10
2014,07,15,12,23,23.30
2014,07,15,12,24,23.40
2014,07,15,12,25,23.40
2014,07,15,12,26,23.40
2014,07,15,12,27,23.40
2014,07,15,12,28,23.50
2014,07,15,12,29,23.50
2014,07,15,12,30,23.60
2014,07,15,12,31,23.80
2014,07,15,12,32,23.90
2014,07,15,12,33,23.90
2014,07,15,12,34,24.00
2014,07,15,12,35,24.20
2014,07,15,12,36,24.30
2014,07,15,12,37,24.40
2014,07,15,12,38,24.50
2014,07,15,12,39,24.70
2014,07,15,12,40,24.80
2014,07,15,12,41,24.80
2014,07,15,12,42,24.80
2014,07,15,12,43,24.80
2014,07,15,12,44,24.80
2014,07,15,12,45,24.80
2014,07,15,12,46,24.70
2014,07,15,12,47,24.70
2014,07,15,12,48,24.70
2014,07,15,12,49,24.80
2014,07,15,12,50,24.90
2014,07,15,12,51,24.90
2014,07,15,12,52,24.90
2014,07,15,12,53,24.90
2014,07,15,12,54,25.00
2014,07,15,12,55,25.10
2014,07,15,12,56,25.10
2014,07,15,12,57,25.10
2014,07,15,12,58,25.20
2014,07,15,12,59,25.30
2014,07,15,13,00,25.20
2014,07,15,13,01,25.20
2014,07,15,13,02,25.30
2014,07,15,13,03,25.30
2014,07,15,13,04,25.30
2014,07,15,13,05,25.30
2014,07,15,13,06,25.50
2014,07,15,13,07,25.60
2014,07,15,13,08,25.60
2014,07,15,13,09,25.60
2014,07,15,13,10,25.70
2014,07,15,13,11,25.80
2014,07,15,13,12,25.80
2014,07,15,13,13,25.90
2014,07,15,13,14,25.90
2014,07,15,13,15,25.90
2014,07,15,13,16,25.90
2014,07,15,13,17,25.90
2014,07,15,13,18,25.90
2014,07,15,13,19,25.90
2014,07,15,13,20,26.00
2014,07,15,13,21,26.10
2014,07,15,13,22,26.20
2014,07,15,13,23,26.10
2014,07,15,13,24,26.00
2014,07,15,13,25,26.00
2014,07,15,13,26,26.00
2014,07,15,13,27,26.00
2014,07,15,13,28,26.00
2014,07,15,13,29,26.10
2014,07,15,13,30,26.10
2014,07,15,13,31,26.00
2014,07,15,13,32,25.90
2014,07,15,13,33,25.80
2014,07,15,13,34,25.70
2014,07,15,13,35,25.60
2014,07,15,13,36,25.60
2014,07,15,13,37,25.50
2014,07,15,13,38,25.40
2014,07,15,13,39,25.50
2014,07,15,13,40,25.60
2014,07,15,13,41,25.70
2014,07,15,13,42,25.60
2014,07,15,13,43,25.60
2014,07,15,13,44,25.60
2014,07,15,13,45,25.60
2014,07,15,13,46,25.50
2014,07,15,13,47,25.40
2014,07,15,13,48,25.40
2014,07,15,13,49,25.50
2014,07,15,13,50,25.60
2014,07,15,13,51,25.70
2014,07,15,13,52,25.90
2014,07,15,13,53,26.00
2014,07,15,13,54,25.90
2014,07,15,13,55,25.80
2014,07,15,13,56,25.70
2014,07,15,13,57,25.60
2014,07,15,13,58,25.60
2014,07,15,13,59,25.60
2014,07,15,14,00,25.60
2014,07,15,14,01,25.60
2014,07,15,14,02,25.50
2014,07,15,14,03,25.50
2014,07,15,14,04,25.50
2014,07,15,14,05,25.60
2014,07,15,14,06,25.60
2014,07,15,14,07,25.70
2014,07,15,14,08,25.80
2014,07,15,14,09,25.70
2014,07,15,14,10,25.70
2014,07,15,14,11,25.80
2014,07,15,14,12,25.80
2014,07,15,14,13,25.70
2014,07,15,14,14,25.60
2014,07,15,14,15,25.50
2014,07,15,14,16,25.50
2014,07,15,14,17,25.60
2014,07,15,14,18,25.60
2014,07,15,14,19,25.60
2014,07,15,14,20,25.60
2014,07,15,14,21,25.70
2014,07,15,14,22,25.80
2014,07,15,14,23,25.90
2014,07,15,14,24,25.90
2014,07,15,14,25,25.90
2014,07,15,14,26,25.90
2014,07,15,14,27,25.90
2014,07,15,14,28,25.80
2014,07,15,14,29,25.80
2014,07,15,14,30,25.90
2014,07,15,14,31,25.90
2014,07,15,14,32,25.90
2014,07,15,14,33,26.10
2014,07,15,14,34,26.10
2014,07,15,14,35,26.20
2014,07,15,14,36,26.20
2014,07,15,14,37,26.10
2014,07,15,14,38,26.00
2014,07,15,14,39,25.90
2014,07,15,14,40,25.90
2014,07,15,14,41,25.90
2014,07,15,14,42,25.80
2014,07,15,14,43,25.60
2014,07,15,14,44,25.60
2014,07,15,14,45,25.60
2014,07,15,14,46,25.60
2014,07,15,14,47,25.60
2014,07,15,14,48,25.60
2014,07,15,14,49,25.50
2014,07,15,14,50,25.50
2014,07,15,14,51,25.40
2014,07,15,14,52,25.40
2014,07,15,14,53,25.40
2014,07,15,14,54,25.40
2014,07,15,14,55,25.40
2014,07,15,14,56,25.50
2014,07,15,14,57,25.60
2014,07,15,14,58,25.80
2014,07,15,14,59,25.90
2014,07,15,15,00,26.00
2014,07,15,15,01,26.10
2014,07,15,15,02,26.10
2014,07,15,15,03,26.10
2014,07,15,15,04,26.10
2014,07,15,15,05,26.30
2014,07,15,15,06,26.30
2014,07,15,15,07,26.30
2014,07,15,15,08,26.40
2014,07,15,15,09,26.50
2014,07,15,15,10,26.50
2014,07,15,15,11,26.50
2014,07,15,15,12,26.50
2014,07,15,15,13,26.50
2014,07,15,15,14,26.40
2014,07,15,15,15,26.30
2014,07,15,15,16,26.30
2014,07,15,15,17,26.20
2014,07,15,15,18,26.10
2014,07,15,15,19,26.00
2014,07,15,15,20,25.90
2014,07,15,15,21,25.90
2014,07,15,15,22,25.90
2014,07,15,15,23,25.90
2014,07,15,15,24,25.90
2014,07,15,15,25,25.80
2014,07,15,15,26,25.70
2014,07,15,15,27,25.60
2014,07,15,15,28,25.70
2014,07,15,15,29,25.70
2014,07,15,15,30,25.60
2014,07,15,15,31,25.70
2014,07,15,15,32,25.70
2014,07,15,15,33,25.70
2014,07,15,15,34,25.70
2014,07,15,15,35,25.80
2014,07,15,15,36,25.80
2014,07,15,15,37,25.90
2014,07,15,15,38,25.90
2014,07,15,15,39,26.00
2014,07,15,15,40,25.90
2014,07,15,15,41,26.00
2014,07,15,15,42,26.10
2014,07,15,15,43,26.00
2014,07,15,15,44,26.00
2014,07,15,15,45,26.10
2014,07,15,15,46,26.20
2014,07,15,15,47,26.40
2014,07,15,15,48,26.40
2014,07,15,15,49,26.50
2014,07,15,15,50,26.50
2014,07,15,15,51,26.60
2014,07,15,15,52,26.70
2014,07,15,15,53,26.70
2014,07,15,15,54,26.70
2014,07,15,15,55,26.80
2014,07,15,15,56,26.80
2014,07,15,15,57,26.80
2014,07,15,15,58,26.80
2014,07,15,15,59,26.60
2014,07,15,16,00,26.60
2014,07,15,16,01,26.60
2014,07,15,16,02,26.50
2014,07,15,16,03,26.40
2014,07,15,16,04,26.40
2014,07,15,16,05,26.30
2014,07,15,16,06,26.30
2014,07,15,16,07,26.40
2014,07,15,16,08,26.40
2014,07,15,16,09,26.50
2014,07,15,16,10,26.60
2014,07,15,16,11,26.60
2014,07,15,16,12,26.50
2014,07,15,16,13,26.40
2014,07,15,16,14,26.30
2014,07,15,16,15,26.20
2014,07,15,16,16,26.20
2014,07,15,16,17,26.30
2014,07,15,16,18,26.30
2014,07,15,16,19,26.40
2014,07,15,16,20,26.50
2014,07,15,16,21,26.60
2014,07,15,16,22,26.70
2014,07,15,16,23,26.80
2014,07,15,16,24,26.70
2014,07,15,16,25,26.80
2014,07,15,16,26,26.80
2014,07,15,16,27,26.80
2014,07,15,16,28,26.70
2014,07,15,16,29,26.70
2014,07,15,16,30,26.60
2014,07,15,16,31,26.60
2014,07,15,16,32,26.60
2014,07,15,16,33,26.70
2014,07,15,16,34,26.80
2014,07,15,16,35,26.90
2014,07,15,16,36,27.00
2014,07,15,16,37,27.10
2014,07,15,16,38,27.10
2014,07,15,16,39,27.10
2014,07,15,16,40,27.20
2014,07,15,16,41,27.30
2014,07,15,16,42,27.40
2014,07,15,16,43,27.50
2014,07,15,16,44,27.40
2014,07,15,16,45,27.40
2014,07,15,16,46,27.30
2014,07,15,16,47,27.40
2014,07,15,16,48,27.40
2014,07,15,16,49,27.50
2014,07,15,16,50,27.60
2014,07,15,16,51,27.60
2014,07,15,16,52,27.60
2014,07,15,16,53,27.60
2014,07,15,16,54,27.70
2014,07,15,16,55,27.70
2014,07,15,16,56,27.70
2014,07,15,16,57,27.80
2014,07,15,16,58,27.90
2014,07,15,16,59,28.00
2014,07,15,17,00,28.10
2014,07,15,17,01,28.30
2014,07,15,17,02,28.30
2014,07,15,17,03,28.40
2014,07,15,17,04,28.50
2014,07,15,17,05,28.50
2014,07,15,17,06,28.50
2014,07,15,17,07,28.50
2014,07,15,17,08,28.60
2014,07,15,17,09,28.60
2014,07,15,17,10,28.60
2014,07,15,17,11,28.60
2014,07,15,17,12,28.50
2014,07,15,17,13,28.50
2014,07,15,17,14,28.60
2014,07,15,17,15,28.60
2014,07,15,17,16,28.70
2014,07,15,17,17,28.70
2014,07,15,17,18,28.70
2014,07,15,17,19,28.70